Time,TemperatureF,DewpointF,PressureIn,WindDirection,WindDirectionDegrees,WindSpeedMPH,WindSpeedGustMPH,Humidity,HourlyPrecipIn,Conditions,Clouds,dailyrainin,SoftwareType,DateUTC
2013-05-09 00:02:00,57.0,55.6,29.99,NW,315,0.0,0.0,95,0.00,,,0.01,meteohub,2013-05-09 04:02:00,
2013-05-09 00:03:00,57.0,55.6,29.99,NW,315,0.0,0.0,95,0.00,,,0.01,meteohub,2013-05-09 04:03:00,
2013-05-09 00:07:00,57.0,55.6,29.99,NW,315,0.0,0.0,95,0.00,,,0.00,meteohub,2013-05-09 04:07:00,
2013-05-09 00:12:00,56.1,54.7,29.98,NW,315,0.0,0.0,95,0.00,,,0.00,meteohub,2013-05-09 04:12:00,
2013-05-09 00:15:00,55.8,54.3,29.99,NW,315,0.0,0.0,95,0.00,,,0.00,meteohub,2013-05-09 04:15:00,
2013-05-09 00:21:00,55.0,53.6,29.99,NW,315,0.0,0.0,95,0.00,,,0.00,meteohub,2013-05-09 04:21:00,
2013-05-09 00:27:00,54.7,53.2,29.99,NW,315,0.0,0.0,95,0.00,,,0.00,meteohub,2013-05-09 04:27:00,
2013-05-09 00:32:00,54.3,52.9,29.99,NW,315,0.0,0.0,95,0.00,,,0.00,meteohub,2013-05-09 04:32:00,
2013-05-09 00:37:00,54.1,52.7,29.99,NW,315,0.0,0.0,95,0.00,,,0.00,meteohub,2013-05-09 04:37:00,
2013-05-09 00:42:00,53.8,52.3,29.99,NW,315,0.0,0.0,95,0.00,,,0.00,meteohub,2013-05-09 04:42:00,
2013-05-09 00:47:00,53.4,52.0,29.99,NW,315,0.0,0.0,95,0.00,,,0.00,meteohub,2013-05-09 04:47:00,
2013-05-09 00:52:00,53.1,51.6,29.99,NW,315,0.0,0.0,95,0.00,,,0.00,meteohub,2013-05-09 04:52:00,
2013-05-09 00:57:00,52.9,51.4,29.99,NW,315,0.0,0.0,95,0.00,,,0.00,meteohub,2013-05-09 04:57:00,
2013-05-09 01:02:00,52.9,51.4,29.99,NW,315,0.0,0.0,95,0.00,,,0.00,meteohub,2013-05-09 05:02:00,
2013-05-09 01:07:00,52.5,51.4,29.99,NW,315,0.0,0.0,96,0.00,,,0.00,meteohub,2013-05-09 05:07:00,
2013-05-09 01:12:00,52.2,51.1,29.99,NW,315,0.0,0.0,96,0.00,,,0.00,meteohub,2013-05-09 05:12:00,
2013-05-09 01:17:00,52.0,50.9,29.99,NW,315,0.0,0.0,96,0.00,,,0.00,meteohub,2013-05-09 05:17:00,
2013-05-09 01:22:00,52.0,50.9,29.99,NW,315,0.0,0.0,96,0.00,,,0.00,meteohub,2013-05-09 05:22:00,
2013-05-09 01:27:00,51.8,50.7,29.98,NW,315,0.0,0.0,96,0.00,,,0.00,meteohub,2013-05-09 05:27:00,
2013-05-09 01:32:00,51.8,50.7,29.99,NW,315,0.0,0.0,96,0.00,,,0.00,meteohub,2013-05-09 05:32:00,
2013-05-09 01:37:00,51.8,50.7,29.98,NW,315,0.0,0.0,96,0.00,,,0.00,meteohub,2013-05-09 05:37:00,
2013-05-09 01:42:00,52.0,50.9,29.99,NW,315,0.0,0.0,96,0.00,,,0.00,meteohub,2013-05-09 05:42:00,
2013-05-09 01:47:00,52.0,51.1,29.98,NW,315,0.0,0.0,97,0.00,,,0.00,meteohub,2013-05-09 05:47:00,
2013-05-09 01:52:00,52.2,51.1,29.98,NW,315,0.0,0.0,96,0.00,,,0.00,meteohub,2013-05-09 05:52:00,
2013-05-09 01:57:00,52.3,51.4,29.98,NW,315,0.0,0.0,97,0.00,,,0.00,meteohub,2013-05-09 05:57:00,
2013-05-09 02:02:00,52.3,51.4,29.98,NW,315,0.0,0.0,97,0.00,,,0.00,meteohub,2013-05-09 06:02:00,
2013-05-09 02:07:00,52.5,51.6,29.97,NW,315,0.0,0.0,97,0.00,,,0.00,meteohub,2013-05-09 06:07:00,
2013-05-09 02:12:00,52.7,51.8,29.97,NW,315,0.0,0.0,97,0.00,,,0.00,meteohub,2013-05-09 06:12:00,
2013-05-09 02:17:00,52.7,51.8,29.97,NW,315,0.0,0.0,97,0.00,,,0.00,meteohub,2013-05-09 06:17:00,
2013-05-09 02:22:00,52.9,52.0,29.97,NW,315,0.0,0.0,97,0.00,,,0.00,meteohub,2013-05-09 06:22:00,
2013-05-09 02:27:00,52.9,52.0,29.97,NW,315,0.0,0.0,97,0.00,,,0.00,meteohub,2013-05-09 06:27:00,
2013-05-09 02:32:00,52.9,52.0,29.97,NW,315,0.0,0.0,97,0.00,,,0.00,meteohub,2013-05-09 06:32:00,
2013-05-09 02:37:00,52.9,52.0,29.97,NW,315,0.0,0.0,97,0.00,,,0.00,meteohub,2013-05-09 06:37:00,
2013-05-09 02:42:00,52.7,51.8,29.97,NW,315,0.0,0.0,97,0.00,,,0.00,meteohub,2013-05-09 06:42:00,
2013-05-09 02:47:00,52.5,51.6,29.97,NW,315,0.0,0.0,97,0.00,,,0.00,meteohub,2013-05-09 06:47:00,
2013-05-09 02:52:00,52.5,51.6,29.97,NW,315,0.0,0.0,97,0.00,,,0.00,meteohub,2013-05-09 06:52:00,
2013-05-09 02:57:00,52.3,51.4,29.97,NW,315,0.0,0.0,97,0.00,,,0.00,meteohub,2013-05-09 06:57:00,
2013-05-09 03:02:00,52.3,51.4,29.97,NW,315,0.0,0.0,97,0.00,,,0.00,meteohub,2013-05-09 07:02:00,
2013-05-09 03:07:00,52.3,51.4,29.97,NW,315,0.0,0.0,97,0.00,,,0.00,meteohub,2013-05-09 07:07:00,
2013-05-09 03:12:00,52.2,51.3,29.97,NW,315,0.0,0.0,97,0.00,,,0.00,meteohub,2013-05-09 07:12:00,
2013-05-09 03:17:00,52.2,51.3,29.97,NW,315,0.0,0.0,97,0.00,,,0.00,meteohub,2013-05-09 07:17:00,
2013-05-09 03:22:00,51.8,50.9,29.97,NW,315,0.0,0.0,97,0.00,,,0.00,meteohub,2013-05-09 07:22:00,
2013-05-09 03:27:00,51.8,50.9,29.97,NW,315,0.0,0.0,97,0.00,,,0.00,meteohub,2013-05-09 07:27:00,
2013-05-09 03:32:00,51.6,50.7,29.97,NW,315,0.0,0.0,97,0.00,,,0.00,meteohub,2013-05-09 07:32:00,
2013-05-09 03:37:00,51.8,50.9,29.97,NW,315,0.0,0.0,97,0.00,,,0.00,meteohub,2013-05-09 07:37:00,
2013-05-09 03:42:00,51.8,50.9,29.97,NW,315,0.0,0.0,97,0.00,,,0.00,meteohub,2013-05-09 07:42:00,
2013-05-09 03:47:00,51.8,51.3,29.97,NW,315,0.0,0.0,98,0.00,,,0.00,meteohub,2013-05-09 07:47:00,
2013-05-09 03:52:00,51.8,51.3,29.97,NW,315,0.0,0.0,98,0.00,,,0.00,meteohub,2013-05-09 07:52:00,
2013-05-09 03:57:00,51.8,51.3,29.98,NW,315,0.0,0.0,98,0.00,,,0.00,meteohub,2013-05-09 07:57:00,
2013-05-09 04:05:00,51.8,51.3,29.98,NW,315,0.0,0.0,98,0.00,,,0.00,meteohub,2013-05-09 08:05:00,
2013-05-09 04:11:00,52.0,51.4,29.98,NW,315,0.0,0.0,98,0.00,,,0.00,meteohub,2013-05-09 08:11:00,
2013-05-09 04:17:00,52.0,51.4,29.98,NW,315,0.0,0.0,98,0.00,,,0.00,meteohub,2013-05-09 08:17:00,
2013-05-09 04:22:00,52.2,51.6,29.98,NW,315,0.0,0.0,98,0.00,,,0.00,meteohub,2013-05-09 08:22:00,
2013-05-09 04:27:00,52.2,51.6,29.97,NW,315,0.0,0.0,98,0.00,,,0.00,meteohub,2013-05-09 08:27:00,
2013-05-09 04:32:00,52.3,51.8,29.98,NW,315,0.0,0.0,98,0.00,,,0.00,meteohub,2013-05-09 08:32:00,
2013-05-09 04:37:00,52.3,51.8,29.98,NW,315,0.0,0.0,98,0.00,,,0.00,meteohub,2013-05-09 08:37:00,
2013-05-09 04:42:00,52.5,52.0,29.98,NW,315,0.0,0.0,98,0.00,,,0.00,meteohub,2013-05-09 08:42:00,
2013-05-09 04:47:00,52.5,52.0,29.97,NW,315,0.0,0.0,98,0.00,,,0.00,meteohub,2013-05-09 08:47:00,
2013-05-09 04:52:00,52.5,52.0,29.98,NW,315,0.0,0.0,98,0.00,,,0.00,meteohub,2013-05-09 08:52:00,
2013-05-09 04:57:00,52.5,52.0,29.98,NW,315,0.0,0.0,98,0.00,,,0.00,meteohub,2013-05-09 08:57:00,
2013-05-09 05:02:00,52.5,52.0,29.98,NW,315,0.0,0.0,98,0.00,,,0.00,meteohub,2013-05-09 09:02:00,
2013-05-09 05:07:00,52.5,52.0,29.98,NW,315,0.0,0.0,98,0.00,,,0.00,meteohub,2013-05-09 09:07:00,
2013-05-09 05:12:00,52.5,52.0,29.98,NW,315,0.0,0.0,98,0.00,,,0.00,meteohub,2013-05-09 09:12:00,
2013-05-09 05:17:00,52.7,52.2,29.99,NW,315,0.0,0.0,98,0.00,,,0.00,meteohub,2013-05-09 09:17:00,
2013-05-09 05:22:00,52.7,52.2,29.99,NW,315,0.0,0.0,98,0.00,,,0.00,meteohub,2013-05-09 09:22:00,
2013-05-09 05:27:00,52.9,52.3,29.98,NW,315,0.0,0.0,98,0.00,,,0.00,meteohub,2013-05-09 09:27:00,
2013-05-09 05:32:00,52.9,52.3,29.98,NW,315,0.0,0.0,98,0.00,,,0.00,meteohub,2013-05-09 09:32:00,
2013-05-09 05:37:00,52.9,52.3,29.99,NW,315,0.0,0.0,98,0.00,,,0.00,meteohub,2013-05-09 09:37:00,
2013-05-09 05:42:00,52.9,52.3,29.99,NW,315,0.0,0.0,98,0.00,,,0.00,meteohub,2013-05-09 09:42:00,
2013-05-09 05:47:00,53.1,52.5,29.99,NW,315,0.0,0.0,98,0.00,,,0.00,meteohub,2013-05-09 09:47:00,
2013-05-09 05:52:00,53.1,52.5,29.99,NW,315,0.0,0.0,98,0.00,,,0.00,meteohub,2013-05-09 09:52:00,
2013-05-09 05:57:00,53.1,52.5,29.99,NW,315,0.0,0.0,98,0.00,,,0.00,meteohub,2013-05-09 09:57:00,
2013-05-09 06:02:00,53.1,52.5,29.99,NW,315,0.0,0.0,98,0.00,,,0.00,meteohub,2013-05-09 10:02:00,
2013-05-09 06:07:00,53.1,52.5,29.99,NW,315,0.0,0.0,98,0.00,,,0.00,meteohub,2013-05-09 10:07:00,
2013-05-09 06:12:00,53.1,52.5,29.99,NW,315,0.0,0.0,98,0.00,,,0.00,meteohub,2013-05-09 10:12:00,
2013-05-09 06:17:00,53.1,52.5,29.99,NW,315,1.0,0.0,98,0.00,,,0.00,meteohub,2013-05-09 10:17:00,
2013-05-09 06:22:00,53.1,52.5,30.00,NW,315,1.0,2.0,98,0.00,,,0.00,meteohub,2013-05-09 10:22:00,
2013-05-09 06:27:00,52.9,52.3,30.00,NW,315,1.0,2.0,98,0.00,,,0.00,meteohub,2013-05-09 10:27:00,
2013-05-09 06:32:00,52.9,52.3,30.00,NW,315,1.0,2.0,98,0.00,,,0.00,meteohub,2013-05-09 10:32:00,
2013-05-09 06:37:00,52.7,52.2,30.00,NW,315,0.0,1.0,98,0.00,,,0.00,meteohub,2013-05-09 10:37:00,
2013-05-09 06:42:00,52.7,52.2,30.00,NW,315,0.0,1.0,98,0.00,,,0.00,meteohub,2013-05-09 10:42:00,
2013-05-09 06:47:00,52.7,52.2,30.00,NW,315,0.0,1.0,98,0.00,,,0.00,meteohub,2013-05-09 10:47:00,
2013-05-09 06:52:00,52.7,52.3,30.01,NW,315,0.0,2.0,99,0.00,,,0.00,meteohub,2013-05-09 10:52:00,
2013-05-09 06:57:00,52.9,52.3,30.01,NW,315,1.0,2.0,98,0.00,,,0.00,meteohub,2013-05-09 10:57:00,
2013-05-09 07:02:00,52.9,52.5,30.01,NW,315,0.0,2.0,99,0.00,,,0.00,meteohub,2013-05-09 11:02:00,
2013-05-09 07:07:00,52.9,52.5,30.02,NW,315,1.0,2.0,99,0.00,,,0.00,meteohub,2013-05-09 11:07:00,
2013-05-09 07:12:00,53.1,52.7,30.02,NW,315,1.0,2.0,99,0.00,,,0.00,meteohub,2013-05-09 11:12:00,
2013-05-09 07:17:00,53.1,52.7,30.02,NW,315,0.0,2.0,99,0.00,,,0.00,meteohub,2013-05-09 11:17:00,
2013-05-09 07:22:00,53.1,52.7,30.03,NW,315,1.0,2.0,99,0.00,,,0.00,meteohub,2013-05-09 11:22:00,
2013-05-09 07:27:00,53.1,52.7,30.02,NW,315,0.0,2.0,99,0.00,,,0.00,meteohub,2013-05-09 11:27:00,
2013-05-09 07:32:00,53.2,52.9,30.03,NW,315,0.0,2.0,99,0.00,,,0.00,meteohub,2013-05-09 11:32:00,
2013-05-09 07:37:00,53.4,53.1,30.03,NW,315,0.0,2.0,99,0.00,,,0.00,meteohub,2013-05-09 11:37:00,
2013-05-09 07:42:00,53.6,53.2,30.03,NW,315,0.0,0.0,99,0.00,,,0.00,meteohub,2013-05-09 11:42:00,
2013-05-09 07:47:00,53.8,53.4,30.03,NW,315,0.0,0.0,99,0.00,,,0.00,meteohub,2013-05-09 11:47:00,
2013-05-09 07:52:00,54.0,53.6,30.03,NW,315,0.0,0.0,99,0.00,,,0.00,meteohub,2013-05-09 11:52:00,
2013-05-09 07:57:00,54.1,53.8,30.04,NW,315,0.0,0.0,99,0.00,,,0.00,meteohub,2013-05-09 11:57:00,
2013-05-09 08:02:00,54.3,54.0,30.04,NW,315,0.0,0.0,99,0.00,,,0.00,meteohub,2013-05-09 12:02:00,
2013-05-09 08:07:00,54.3,54.0,30.04,NW,315,0.0,2.0,99,0.00,,,0.00,meteohub,2013-05-09 12:07:00,
2013-05-09 08:12:00,54.5,54.1,30.04,NW,315,1.0,2.0,99,0.00,,,0.00,meteohub,2013-05-09 12:12:00,
2013-05-09 08:17:00,54.7,54.3,30.04,NW,315,0.0,1.0,99,0.00,,,0.00,meteohub,2013-05-09 12:17:00,
2013-05-09 08:22:00,54.9,54.5,30.04,NW,315,1.0,2.0,99,0.00,,,0.00,meteohub,2013-05-09 12:22:00,
2013-05-09 08:27:00,55.0,54.7,30.04,NW,315,1.0,2.0,99,0.00,,,0.00,meteohub,2013-05-09 12:27:00,
2013-05-09 08:32:00,55.2,54.9,30.04,NW,315,2.0,2.0,99,0.00,,,0.00,meteohub,2013-05-09 12:32:00,
2013-05-09 08:37:00,55.6,55.2,30.04,NW,315,0.0,2.0,99,0.00,,,0.00,meteohub,2013-05-09 12:37:00,
2013-05-09 08:42:00,56.1,55.8,30.04,North,0,2.0,2.0,99,0.00,,,0.00,meteohub,2013-05-09 12:42:00,
2013-05-09 08:47:00,56.5,56.1,30.04,SW,225,2.0,3.0,99,0.00,,,0.00,meteohub,2013-05-09 12:47:00,
2013-05-09 08:52:00,56.5,56.1,30.04,SW,225,2.0,3.0,99,0.00,,,0.00,meteohub,2013-05-09 12:52:00,
2013-05-09 08:57:00,57.2,56.8,30.04,NW,315,3.0,3.0,99,0.00,,,0.00,meteohub,2013-05-09 12:57:00,
2013-05-09 09:02:00,58.3,57.9,30.04,North,0,2.0,3.0,99,0.00,,,0.00,meteohub,2013-05-09 13:02:00,
2013-05-09 09:07:00,58.3,57.9,30.03,North,0,1.0,3.0,99,0.00,,,0.00,meteohub,2013-05-09 13:07:00,
2013-05-09 09:12:00,58.3,57.9,30.04,North,0,1.0,3.0,99,0.00,,,0.00,meteohub,2013-05-09 13:12:00,
2013-05-09 09:17:00,59.4,59.0,30.04,South,180,1.0,3.0,99,0.00,,,0.00,meteohub,2013-05-09 13:17:00,
2013-05-09 09:22:00,59.7,59.4,30.04,South,180,0.0,2.0,99,0.00,,,0.00,meteohub,2013-05-09 13:22:00,
2013-05-09 09:27:00,61.3,61.0,30.04,SE,135,2.0,2.0,99,0.00,,,0.00,meteohub,2013-05-09 13:27:00,
2013-05-09 09:32:00,61.9,61.5,30.04,SW,225,2.0,3.0,99,0.00,,,0.00,meteohub,2013-05-09 13:32:00,
2013-05-09 09:37:00,63.5,63.1,30.04,South,180,2.0,3.0,99,0.00,,,0.00,meteohub,2013-05-09 13:37:00,
2013-05-09 09:42:00,64.4,63.9,30.04,South,180,1.0,2.0,98,0.00,,,0.00,meteohub,2013-05-09 13:42:00,
2013-05-09 09:47:00,64.9,63.9,30.04,South,180,1.0,2.0,96,0.00,,,0.00,meteohub,2013-05-09 13:47:00,
2013-05-09 09:52:00,66.2,63.5,30.04,NE,45,4.0,4.0,91,0.00,,,0.00,meteohub,2013-05-09 13:52:00,
2013-05-09 09:57:00,66.9,62.2,30.04,NW,315,3.0,4.0,85,0.00,,,0.00,meteohub,2013-05-09 13:57:00,
2013-05-09 10:02:00,67.6,63.0,30.04,NW,315,2.0,4.0,85,0.00,,,0.00,meteohub,2013-05-09 14:02:00,
2013-05-09 10:07:00,68.5,61.3,30.04,SW,225,5.0,5.0,78,0.00,,,0.00,meteohub,2013-05-09 14:07:00,
2013-05-09 10:12:00,68.9,59.9,30.04,NE,45,3.0,5.0,73,0.00,,,0.00,meteohub,2013-05-09 14:12:00,
2013-05-09 10:17:00,69.6,61.3,30.04,South,180,2.0,5.0,75,0.00,,,0.00,meteohub,2013-05-09 14:17:00,
2013-05-09 10:22:00,70.2,61.9,30.04,East,90,2.0,5.0,75,0.00,,,0.00,meteohub,2013-05-09 14:22:00,
2013-05-09 10:27:00,70.2,60.3,30.05,NW,315,3.0,5.0,71,0.00,,,0.00,meteohub,2013-05-09 14:27:00,
2013-05-09 10:32:00,70.7,60.8,30.05,SW,225,2.0,6.0,71,0.00,,,0.00,meteohub,2013-05-09 14:32:00,
2013-05-09 10:37:00,71.4,60.8,30.04,WSW,248,4.0,6.0,69,0.00,,,0.00,meteohub,2013-05-09 14:37:00,
2013-05-09 10:42:00,71.8,59.7,30.05,NE,45,4.0,4.0,66,0.00,,,0.00,meteohub,2013-05-09 14:42:00,
2013-05-09 10:47:00,72.0,60.4,30.05,North,0,3.0,4.0,67,0.00,,,0.00,meteohub,2013-05-09 14:47:00,
2013-05-09 10:52:00,72.9,58.6,30.04,NE,45,4.0,4.0,61,0.00,,,0.00,meteohub,2013-05-09 14:52:00,
2013-05-09 10:57:00,73.2,60.3,30.04,NE,45,1.0,4.0,64,0.00,,,0.00,meteohub,2013-05-09 14:57:00,
2013-05-09 11:02:00,73.6,60.3,30.04,North,0,3.0,4.0,63,0.00,,,0.00,meteohub,2013-05-09 15:02:00,
2013-05-09 11:07:00,73.8,58.5,30.04,North,0,1.0,4.0,59,0.00,,,0.00,meteohub,2013-05-09 15:07:00,
2013-05-09 11:12:00,74.1,59.4,30.04,SW,225,2.0,4.0,60,0.00,,,0.00,meteohub,2013-05-09 15:12:00,
2013-05-09 11:17:00,74.1,60.3,30.04,East,90,2.0,4.0,62,0.00,,,0.00,meteohub,2013-05-09 15:17:00,
2013-05-09 11:22:00,74.5,58.3,30.04,North,0,3.0,4.0,57,0.00,,,0.00,meteohub,2013-05-09 15:22:00,
2013-05-09 11:27:00,74.1,56.5,30.04,SE,135,2.0,5.0,54,0.00,,,0.00,meteohub,2013-05-09 15:27:00,
2013-05-09 11:32:00,74.7,57.9,30.04,South,180,3.0,5.0,56,0.00,,,0.00,meteohub,2013-05-09 15:32:00,
2013-05-09 11:37:00,75.2,57.4,30.04,NW,315,4.0,6.0,54,0.00,,,0.00,meteohub,2013-05-09 15:37:00,
2013-05-09 11:42:00,75.2,56.8,30.04,NE,45,2.0,8.0,53,0.00,,,0.00,meteohub,2013-05-09 15:42:00,
2013-05-09 11:47:00,75.2,55.2,30.04,East,90,4.0,8.0,50,0.00,,,0.00,meteohub,2013-05-09 15:47:00,
2013-05-09 11:52:00,75.6,56.1,30.04,SW,225,5.0,8.0,51,0.00,,,0.00,meteohub,2013-05-09 15:52:00,
2013-05-09 11:57:00,75.9,55.9,30.04,East,90,4.0,8.0,50,0.00,,,0.00,meteohub,2013-05-09 15:57:00,
2013-05-09 12:02:00,75.9,54.9,30.04,North,0,6.0,6.0,48,0.00,,,0.00,meteohub,2013-05-09 16:02:00,
2013-05-09 12:07:00,76.1,55.6,30.03,East,90,4.0,6.0,49,0.00,,,0.00,meteohub,2013-05-09 16:07:00,
2013-05-09 12:12:00,76.3,54.5,30.03,SW,225,5.0,6.0,47,0.00,,,0.00,meteohub,2013-05-09 16:12:00,
2013-05-09 12:17:00,76.5,52.9,30.03,NE,45,3.0,7.0,44,0.00,,,0.00,meteohub,2013-05-09 16:17:00,
2013-05-09 12:22:00,76.6,55.4,30.03,North,0,3.0,7.0,48,0.00,,,0.00,meteohub,2013-05-09 16:22:00,
2013-05-09 12:27:00,77.0,56.3,30.03,East,90,2.0,7.0,49,0.00,,,0.00,meteohub,2013-05-09 16:27:00,
2013-05-09 12:32:00,77.2,54.9,30.03,SW,225,7.0,7.0,46,0.00,,,0.00,meteohub,2013-05-09 16:32:00,
2013-05-09 12:37:00,77.4,53.8,30.03,NW,315,3.0,7.0,44,0.00,,,0.00,meteohub,2013-05-09 16:37:00,
2013-05-09 12:42:00,77.4,55.6,30.03,NW,315,2.0,7.0,47,0.00,,,0.00,meteohub,2013-05-09 16:42:00,
2013-05-09 12:47:00,77.5,57.4,30.03,NNE,23,2.0,7.0,50,0.00,,,0.00,meteohub,2013-05-09 16:47:00,
2013-05-09 12:52:00,77.4,54.3,30.03,SW,225,6.0,6.0,45,0.00,,,0.00,meteohub,2013-05-09 16:52:00,
2013-05-09 12:57:00,77.7,54.1,30.03,NE,45,5.0,6.0,44,0.00,,,0.00,meteohub,2013-05-09 16:57:00,
2013-05-09 13:02:00,77.7,54.7,30.03,SW,225,6.0,7.0,45,0.00,,,0.00,meteohub,2013-05-09 17:02:00,
2013-05-09 13:07:00,78.1,56.3,30.02,NE,45,3.0,7.0,47,0.00,,,0.00,meteohub,2013-05-09 17:07:00,
2013-05-09 13:12:00,78.6,57.2,30.03,NW,315,4.0,8.0,48,0.00,,,0.00,meteohub,2013-05-09 17:12:00,
2013-05-09 13:17:00,78.4,52.7,30.02,SE,135,2.0,8.0,41,0.00,,,0.00,meteohub,2013-05-09 17:17:00,
2013-05-09 13:22:00,78.4,54.7,30.02,NW,315,2.0,8.0,44,0.00,,,0.00,meteohub,2013-05-09 17:22:00,
2013-05-09 13:27:00,78.8,53.1,30.02,NE,45,10.0,10.0,41,0.00,,,0.00,meteohub,2013-05-09 17:27:00,
2013-05-09 13:32:00,78.8,52.5,30.02,NW,315,6.0,10.0,40,0.00,,,0.00,meteohub,2013-05-09 17:32:00,
2013-05-09 13:37:00,79.0,53.2,30.02,NE,45,5.0,10.0,41,0.00,,,0.00,meteohub,2013-05-09 17:37:00,
2013-05-09 13:42:00,79.2,52.2,30.02,NE,45,6.0,10.0,39,0.00,,,0.00,meteohub,2013-05-09 17:42:00,
2013-05-09 13:47:00,79.2,52.2,30.02,West,270,4.0,10.0,39,0.00,,,0.00,meteohub,2013-05-09 17:47:00,
2013-05-09 13:52:00,79.3,54.3,30.02,West,270,3.0,8.0,42,0.00,,,0.00,meteohub,2013-05-09 17:52:00,
2013-05-09 13:57:00,79.7,53.2,30.02,East,90,5.0,6.0,40,0.00,,,0.00,meteohub,2013-05-09 17:57:00,
2013-05-09 14:02:00,79.7,51.8,30.02,North,0,4.0,5.0,38,0.00,,,0.00,meteohub,2013-05-09 18:02:00,
2013-05-09 14:07:00,80.2,53.8,30.02,SE,135,6.0,6.0,40,0.00,,,0.00,meteohub,2013-05-09 18:07:00,
2013-05-09 14:12:00,80.6,56.1,30.02,SW,225,4.0,9.0,43,0.00,,,0.00,meteohub,2013-05-09 18:12:00,
2013-05-09 14:17:00,80.8,53.6,30.02,West,270,5.0,9.0,39,0.00,,,0.00,meteohub,2013-05-09 18:17:00,
2013-05-09 14:22:00,80.8,57.4,30.01,West,270,3.0,9.0,45,0.00,,,0.00,meteohub,2013-05-09 18:22:00,
2013-05-09 14:27:00,80.4,52.5,30.01,SW,225,4.0,8.0,38,0.00,,,0.00,meteohub,2013-05-09 18:27:00,
2013-05-09 14:32:00,80.4,52.5,30.01,West,270,3.0,9.0,38,0.00,,,0.00,meteohub,2013-05-09 18:32:00,
2013-05-09 14:37:00,80.6,51.3,30.01,SW,225,4.0,9.0,36,0.00,,,0.00,meteohub,2013-05-09 18:37:00,
2013-05-09 14:42:00,81.0,55.0,30.01,North,0,3.0,9.0,41,0.00,,,0.00,meteohub,2013-05-09 18:42:00,
2013-05-09 14:47:00,81.1,51.6,30.01,SW,225,4.0,6.0,36,0.00,,,0.00,meteohub,2013-05-09 18:47:00,
2013-05-09 14:52:00,80.6,52.0,30.01,WSW,248,5.0,6.0,37,0.00,,,0.00,meteohub,2013-05-09 18:52:00,
2013-05-09 14:57:00,80.8,54.1,30.01,West,270,7.0,7.0,40,0.00,,,0.00,meteohub,2013-05-09 18:57:00,
2013-05-09 15:02:00,80.2,52.3,30.01,South,180,4.0,7.0,38,0.00,,,0.00,meteohub,2013-05-09 19:02:00,
2013-05-09 15:07:00,80.6,55.4,30.01,SE,135,2.0,7.0,42,0.00,,,0.00,meteohub,2013-05-09 19:07:00,
2013-05-09 15:12:00,81.0,54.3,30.01,SW,225,3.0,7.0,40,0.00,,,0.00,meteohub,2013-05-09 19:12:00,
2013-05-09 15:17:00,81.0,51.4,30.01,NE,45,3.0,6.0,36,0.00,,,0.00,meteohub,2013-05-09 19:17:00,
2013-05-09 15:22:00,81.1,53.1,30.01,South,180,4.0,6.0,38,0.00,,,0.00,meteohub,2013-05-09 19:22:00,
2013-05-09 15:27:00,80.4,51.8,30.00,NE,45,4.0,7.0,37,0.00,,,0.00,meteohub,2013-05-09 19:27:00,
2013-05-09 15:32:00,80.1,52.9,30.00,NE,45,3.0,7.0,39,0.00,,,0.00,meteohub,2013-05-09 19:32:00,
2013-05-09 15:37:00,80.1,53.6,30.00,South,180,2.0,7.0,40,0.00,,,0.00,meteohub,2013-05-09 19:37:00,
2013-05-09 15:42:00,81.3,55.4,30.00,NW,315,3.0,4.0,41,0.00,,,0.00,meteohub,2013-05-09 19:42:00,
2013-05-09 15:47:00,81.9,53.1,30.00,North,0,4.0,6.0,37,0.00,,,0.00,meteohub,2013-05-09 19:47:00,
2013-05-09 15:52:00,81.7,49.8,30.00,SW,225,8.0,8.0,33,0.00,,,0.00,meteohub,2013-05-09 19:52:00,
2013-05-09 15:57:00,81.7,52.2,30.00,East,90,3.0,8.0,36,0.00,,,0.00,meteohub,2013-05-09 19:57:00,
2013-05-09 16:02:00,82.2,53.4,30.00,SW,225,3.0,8.0,37,0.00,,,0.00,meteohub,2013-05-09 20:02:00,
2013-05-09 16:07:00,82.9,54.7,30.00,North,0,3.0,8.0,38,0.00,,,0.00,meteohub,2013-05-09 20:07:00,
2013-05-09 16:12:00,81.5,51.3,30.00,North,0,4.0,6.0,35,0.00,,,0.00,meteohub,2013-05-09 20:12:00,
2013-05-09 16:17:00,80.2,53.1,30.00,NW,315,2.0,6.0,39,0.00,,,0.00,meteohub,2013-05-09 20:17:00,
2013-05-09 16:22:00,79.7,52.5,30.00,NW,315,2.0,6.0,39,0.00,,,0.00,meteohub,2013-05-09 20:22:00,
2013-05-09 16:27:00,79.2,52.2,30.00,SW,225,2.0,6.0,39,0.00,,,0.00,meteohub,2013-05-09 20:27:00,
2013-05-09 16:32:00,79.0,53.2,30.00,SW,225,2.0,3.0,41,0.00,,,0.00,meteohub,2013-05-09 20:32:00,
2013-05-09 16:37:00,79.2,54.7,30.00,West,270,2.0,3.0,43,0.00,,,0.00,meteohub,2013-05-09 20:37:00,
2013-05-09 16:42:00,79.3,54.9,30.00,North,0,3.0,3.0,43,0.00,,,0.00,meteohub,2013-05-09 20:42:00,
2013-05-09 16:47:00,79.5,56.8,29.99,NE,45,4.0,4.0,46,0.00,,,0.00,meteohub,2013-05-09 20:47:00,
2013-05-09 16:52:00,79.9,57.9,30.00,NW,315,2.0,4.0,47,0.00,,,0.00,meteohub,2013-05-09 20:52:00,
2013-05-09 16:57:00,80.2,58.1,30.00,West,270,2.0,4.0,47,0.00,,,0.00,meteohub,2013-05-09 20:57:00,
2013-05-09 17:02:00,80.2,59.4,29.99,West,270,2.0,4.0,49,0.00,,,0.00,meteohub,2013-05-09 21:02:00,
2013-05-09 17:07:00,80.1,59.2,30.00,West,270,2.0,2.0,49,0.00,,,0.00,meteohub,2013-05-09 21:07:00,
2013-05-09 17:12:00,80.2,59.9,29.99,West,270,2.0,2.0,50,0.00,,,0.00,meteohub,2013-05-09 21:12:00,
2013-05-09 17:17:00,80.2,58.1,29.99,West,270,2.0,2.0,47,0.00,,,0.00,meteohub,2013-05-09 21:17:00,
2013-05-09 17:22:00,79.9,54.1,29.99,NE,45,2.0,3.0,41,0.00,,,0.00,meteohub,2013-05-09 21:22:00,
2013-05-09 17:27:00,80.4,54.5,29.99,NE,45,2.0,3.0,41,0.00,,,0.00,meteohub,2013-05-09 21:27:00,
2013-05-09 17:32:00,80.6,56.1,29.99,NW,315,4.0,4.0,43,0.00,,,0.00,meteohub,2013-05-09 21:32:00,
2013-05-09 17:37:00,80.8,54.1,29.99,South,180,3.0,4.0,40,0.00,,,0.00,meteohub,2013-05-09 21:37:00,
2013-05-09 17:42:00,80.4,54.0,29.99,NW,315,1.0,4.0,40,0.00,,,0.00,meteohub,2013-05-09 21:42:00,
2013-05-09 17:47:00,80.2,54.3,29.99,NW,315,2.0,4.0,41,0.00,,,0.00,meteohub,2013-05-09 21:47:00,
2013-05-09 17:52:00,80.1,57.4,29.99,NW,315,2.0,4.0,46,0.00,,,0.00,meteohub,2013-05-09 21:52:00,
2013-05-09 17:57:00,79.3,56.1,29.99,South,180,2.0,4.0,45,0.00,,,0.00,meteohub,2013-05-09 21:57:00,
2013-05-09 18:02:00,79.0,58.1,29.99,North,0,1.0,3.0,49,0.00,,,0.00,meteohub,2013-05-09 22:02:00,
2013-05-09 18:07:00,78.4,57.2,29.99,North,0,2.0,3.0,48,0.00,,,0.00,meteohub,2013-05-09 22:07:00,
2013-05-09 18:12:00,77.9,57.7,29.99,SW,225,2.0,2.0,50,0.00,,,0.00,meteohub,2013-05-09 22:12:00,
2013-05-09 18:17:00,77.5,57.9,29.99,SW,225,0.0,2.0,51,0.00,,,0.00,meteohub,2013-05-09 22:17:00,
2013-05-09 18:22:00,77.4,57.7,29.99,West,270,2.0,2.0,51,0.00,,,0.00,meteohub,2013-05-09 22:22:00,
2013-05-09 18:27:00,77.2,58.6,29.99,SE,135,0.0,2.0,53,0.00,,,0.00,meteohub,2013-05-09 22:27:00,
2013-05-09 18:32:00,76.8,59.0,29.99,SE,135,1.0,2.0,54,0.00,,,0.00,meteohub,2013-05-09 22:32:00,
2013-05-09 18:37:00,76.5,59.5,29.99,SE,135,0.0,2.0,56,0.00,,,0.00,meteohub,2013-05-09 22:37:00,
2013-05-09 18:42:00,76.1,59.7,29.99,SE,135,1.0,2.0,57,0.00,,,0.00,meteohub,2013-05-09 22:42:00,
2013-05-09 18:47:00,75.4,59.0,29.99,SE,135,1.0,2.0,57,0.00,,,0.00,meteohub,2013-05-09 22:47:00,
2013-05-09 18:52:00,74.7,59.9,29.99,SE,135,0.0,2.0,60,0.00,,,0.00,meteohub,2013-05-09 22:52:00,
2013-05-09 18:57:00,73.9,59.2,29.99,SE,135,1.0,2.0,60,0.00,,,0.00,meteohub,2013-05-09 22:57:00,
2013-05-09 19:02:00,73.6,59.7,29.99,NE,45,1.0,1.0,62,0.00,,,0.00,meteohub,2013-05-09 23:02:00,
2013-05-09 19:07:00,73.0,61.0,29.99,SE,135,0.0,1.0,66,0.00,,,0.00,meteohub,2013-05-09 23:07:00,
2013-05-09 19:12:00,72.5,61.7,29.99,SE,135,1.0,1.0,69,0.00,,,0.00,meteohub,2013-05-09 23:12:00,
2013-05-09 19:17:00,72.0,61.2,29.99,SE,135,0.0,1.0,69,0.00,,,0.00,meteohub,2013-05-09 23:17:00,
2013-05-09 19:22:00,71.2,61.3,30.00,SE,135,1.0,1.0,71,0.00,,,0.00,meteohub,2013-05-09 23:22:00,
2013-05-09 19:27:00,70.9,61.3,29.99,SE,135,0.0,1.0,72,0.00,,,0.00,meteohub,2013-05-09 23:27:00,
2013-05-09 19:32:00,70.3,61.3,29.99,SE,135,0.0,1.0,73,0.00,,,0.00,meteohub,2013-05-09 23:32:00,
2013-05-09 19:37:00,70.0,61.7,30.00,SE,135,0.0,1.0,75,0.00,,,0.00,meteohub,2013-05-09 23:37:00,
2013-05-09 19:42:00,69.4,61.2,30.00,SE,135,0.0,1.0,75,0.00,,,0.00,meteohub,2013-05-09 23:42:00,
2013-05-09 19:47:00,69.1,61.2,30.00,SE,135,1.0,1.0,76,0.00,,,0.00,meteohub,2013-05-09 23:47:00,
2013-05-09 19:52:00,68.2,60.6,30.00,SE,135,0.0,1.0,77,0.00,,,0.00,meteohub,2013-05-09 23:52:00,
2013-05-09 19:57:00,67.6,60.3,30.01,SE,135,1.0,2.0,77,0.00,,,0.00,meteohub,2013-05-09 23:57:00,
2013-05-09 20:02:00,67.1,59.7,30.01,SE,135,1.0,2.0,77,0.00,,,0.00,meteohub,2013-05-10 00:02:00,
2013-05-09 20:07:00,66.6,59.9,30.01,SE,135,0.0,1.0,79,0.00,,,0.00,meteohub,2013-05-10 00:07:00,
2013-05-09 20:12:00,66.0,59.7,30.01,SE,135,1.0,1.0,80,0.00,,,0.00,meteohub,2013-05-10 00:12:00,
2013-05-09 20:17:00,65.5,59.2,30.01,SE,135,1.0,1.0,80,0.00,,,0.00,meteohub,2013-05-10 00:17:00,
2013-05-09 20:22:00,65.1,59.2,30.01,SE,135,2.0,2.0,81,0.00,,,0.00,meteohub,2013-05-10 00:22:00,
2013-05-09 20:27:00,64.6,59.0,30.01,SE,135,2.0,2.0,82,0.00,,,0.00,meteohub,2013-05-10 00:27:00,
2013-05-09 20:32:00,64.4,58.8,30.02,SE,135,1.0,2.0,82,0.00,,,0.00,meteohub,2013-05-10 00:32:00,
2013-05-09 20:37:00,63.9,58.3,30.01,SE,135,1.0,2.0,82,0.00,,,0.00,meteohub,2013-05-10 00:37:00,
2013-05-09 20:42:00,63.7,58.5,30.02,SE,135,1.0,2.0,83,0.00,,,0.00,meteohub,2013-05-10 00:42:00,
2013-05-09 20:47:00,63.5,58.6,30.02,SE,135,0.0,1.0,84,0.00,,,0.00,meteohub,2013-05-10 00:47:00,
2013-05-09 20:52:00,63.1,58.3,30.03,SE,135,1.0,1.0,84,0.00,,,0.00,meteohub,2013-05-10 00:52:00,
2013-05-09 20:57:00,62.8,57.9,30.03,SE,135,0.0,1.0,84,0.00,,,0.00,meteohub,2013-05-10 00:57:00,
2013-05-09 21:02:00,62.6,58.1,30.03,SE,135,0.0,1.0,85,0.00,,,0.00,meteohub,2013-05-10 01:02:00,
2013-05-09 21:07:00,62.4,57.9,30.03,SE,135,0.0,1.0,85,0.00,,,0.00,meteohub,2013-05-10 01:07:00,
2013-05-09 21:12:00,62.1,57.6,30.03,SE,135,0.0,0.0,85,0.00,,,0.00,meteohub,2013-05-10 01:12:00,
2013-05-09 21:17:00,62.1,57.7,30.04,SE,135,0.0,0.0,86,0.00,,,0.00,meteohub,2013-05-10 01:17:00,
2013-05-09 21:22:00,61.7,57.4,30.03,SE,135,0.0,0.0,86,0.00,,,0.00,meteohub,2013-05-10 01:22:00,
2013-05-09 21:27:00,61.5,57.4,30.04,SE,135,0.0,0.0,86,0.00,,,0.00,meteohub,2013-05-10 01:27:00,
2013-05-09 21:32:00,61.2,57.0,30.04,SE,135,0.0,1.0,86,0.00,,,0.00,meteohub,2013-05-10 01:32:00,
2013-05-09 21:37:00,60.8,56.8,30.04,SE,135,1.0,1.0,87,0.00,,,0.00,meteohub,2013-05-10 01:37:00,
2013-05-09 21:42:00,60.6,56.7,30.04,SE,135,0.0,1.0,87,0.00,,,0.00,meteohub,2013-05-10 01:42:00,
2013-05-09 21:47:00,60.4,56.5,30.04,SE,135,0.0,1.0,87,0.00,,,0.00,meteohub,2013-05-10 01:47:00,
2013-05-09 21:52:00,60.1,56.1,30.04,SE,135,0.0,1.0,87,0.00,,,0.00,meteohub,2013-05-10 01:52:00,
2013-05-09 21:57:00,59.9,56.3,30.05,SE,135,0.0,0.0,88,0.00,,,0.00,meteohub,2013-05-10 01:57:00,
2013-05-09 22:02:00,59.9,56.3,30.05,SE,135,0.0,0.0,88,0.00,,,0.00,meteohub,2013-05-10 02:02:00,
2013-05-09 22:07:00,59.5,55.9,30.05,SE,135,0.0,0.0,88,0.00,,,0.00,meteohub,2013-05-10 02:07:00,
2013-05-09 22:12:00,59.4,55.8,30.05,SE,135,0.0,0.0,88,0.00,,,0.00,meteohub,2013-05-10 02:12:00,
2013-05-09 22:17:00,59.2,55.6,30.05,SE,135,0.0,0.0,88,0.00,,,0.00,meteohub,2013-05-10 02:17:00,
2013-05-09 22:22:00,58.8,55.6,30.05,SE,135,0.0,0.0,89,0.00,,,0.00,meteohub,2013-05-10 02:22:00,
2013-05-09 22:27:00,58.6,55.4,30.05,SE,135,0.0,0.0,89,0.00,,,0.00,meteohub,2013-05-10 02:27:00,
2013-05-09 22:32:00,58.5,55.2,30.05,SE,135,0.0,0.0,89,0.00,,,0.00,meteohub,2013-05-10 02:32:00,
2013-05-09 22:37:00,58.3,55.0,30.05,SE,135,1.0,0.0,89,0.00,,,0.00,meteohub,2013-05-10 02:37:00,
2013-05-09 22:42:00,58.1,54.9,30.05,SE,135,0.0,1.0,89,0.00,,,0.00,meteohub,2013-05-10 02:42:00,
2013-05-09 22:47:00,57.7,54.5,30.05,SE,135,0.0,1.0,89,0.00,,,0.00,meteohub,2013-05-10 02:47:00,
2013-05-09 22:52:00,57.6,54.3,30.05,SE,135,0.0,1.0,89,0.00,,,0.00,meteohub,2013-05-10 02:52:00,
2013-05-09 22:57:00,57.6,54.7,30.05,SE,135,0.0,1.0,90,0.00,,,0.00,meteohub,2013-05-10 02:57:00,
2013-05-09 23:02:00,57.4,54.5,30.05,SE,135,0.0,0.0,90,0.00,,,0.00,meteohub,2013-05-10 03:02:00,
2013-05-09 23:07:00,57.4,54.5,30.04,SE,135,0.0,0.0,90,0.00,,,0.00,meteohub,2013-05-10 03:07:00,
2013-05-09 23:12:00,57.2,54.3,30.05,SE,135,0.0,0.0,90,0.00,,,0.00,meteohub,2013-05-10 03:12:00,
2013-05-09 23:17:00,57.0,54.1,30.04,SE,135,0.0,0.0,90,0.00,,,0.00,meteohub,2013-05-10 03:17:00,
2013-05-09 23:22:00,57.0,54.1,30.04,SE,135,0.0,0.0,90,0.00,,,0.00,meteohub,2013-05-10 03:22:00,
2013-05-09 23:27:00,56.8,54.0,30.05,SE,135,0.0,0.0,90,0.00,,,0.00,meteohub,2013-05-10 03:27:00,
2013-05-09 23:32:00,56.8,54.0,30.05,SE,135,0.0,0.0,90,0.00,,,0.00,meteohub,2013-05-10 03:32:00,
2013-05-09 23:37:00,56.7,54.1,30.05,SE,135,0.0,0.0,91,0.00,,,0.00,meteohub,2013-05-10 03:37:00,
2013-05-09 23:42:00,56.7,54.1,30.04,SE,135,0.0,0.0,91,0.00,,,0.00,meteohub,2013-05-10 03:42:00,
2013-05-09 23:47:00,56.5,54.0,30.05,SE,135,0.0,0.0,91,0.00,,,0.00,meteohub,2013-05-10 03:47:00,
2013-05-09 23:52:00,56.3,53.8,30.05,SE,135,0.0,0.0,91,0.00,,,0.00,meteohub,2013-05-10 03:52:00,
2013-05-09 23:57:00,56.3,53.8,30.05,SE,135,0.0,0.0,91,0.00,,,0.00,meteohub,2013-05-10 03:57:00,